FW5819 Weather Reports


Display with metric or nautical units.
time (UTC)temp
F
wind
direction
speed
MPH
gust
MPH
rain 1hr
in
rain 24hr
in
rain mn
in
humidity
%
barometer
mb
20260831094541 71 102 0.0 3.0 0.00 0.01 0.00 88 1017.8
20260831093049 71 153 0.0 2.0 0.00 0.01 0.00 88 1017.9
20260831092002 71 238 0.0 4.0 0.00 0.01 0.00 88 1017.8
20260831090043 71 0 0.0 1.0 0.00 0.01 0.00 88 1017.8
20260831084542 71 0 0.0 2.0 0.00 0.01 0.00 88 1018.1
20260831083046 71 0 0.0 1.0 0.00 0.01 0.00 87 1018.0
20260831081543 71 0 0.0 2.0 0.00 0.01 0.00 87 1017.9
20260831080038 71 223 0.0 3.0 0.00 0.01 0.00 87 1018.0
20260831074545 71 173 0.0 2.0 0.00 0.01 0.00 87 1018.1
20260831073048 71 0 0.0 1.0 0.00 0.01 0.00 87 1018.1
20260831071541 71 137 0.0 3.0 0.00 0.01 0.00 87 1018.1
20260831070044 71 154 0.0 5.0 0.00 0.01 0.00 87 1018.1
20260831064542 71 0 0.0 4.0 0.00 0.01 0.00 87 1018.1
20260831063042 70 0 0.0 3.0 0.00 0.01 0.00 87 1018.2
20260831061539 70 192 0.0 4.0 0.00 0.01 0.00 87 1018.4
20260831060041 70 180 0.0 7.0 0.00 0.01 0.00 87 1018.5
20260831054543 70 143 0.0 5.0 0.00 0.01 0.00 87 1018.6
20260831053040 70 174 0.0 6.0 0.00 0.01 0.00 87 1018.8
20260831051546 70 163 0.0 2.0 0.00 0.01 0.00 87 1018.8
20260831050045 71 0 0.0 4.0 0.00 0.01 0.00 87 1018.7
20260831044559 71 0 0.0 6.0 0.00 0.01 0.00 87 1018.6
20260831043047 71 208 0.0 3.0 0.00 0.01 0.00 87 1018.6
20260831041602 71 88 1.0 4.0 0.00 0.01 0.00 88 1018.7
20260831040044 71 113 0.0 5.0 0.00 0.01 0.00 88 1018.7
20260831034544 71 0 0.0 2.0 0.00 0.01 0.01 88 1018.8
20260831033038 71 0 0.0 3.0 0.00 0.01 0.01 88 1018.9
20260831031544 71 0 0.0 2.0 0.00 0.01 0.01 88 1018.8
20260831030048 71 0 0.0 4.0 0.00 0.01 0.01 89 1019.2
20260831024543 70 169 0.0 4.0 0.00 0.01 0.01 90 1019.2
20260831023046 70 0 0.0 3.0 0.00 0.01 0.01 91 1019.2
20260831021542 70 0 0.0 2.0 0.00 0.01 0.01 91 1019.2
20260831020041 69 0 0.0 1.0 0.00 0.01 0.01 91 1019.4
20260831014543 69 124 0.0 1.0 0.00 0.01 0.01 91 1019.6
20260831013050 70 0 0.0 1.0 0.00 0.01 0.01 91 1020.0
20260831011545 70 0 0.0 1.0 0.00 0.01 0.01 90 1020.3
20260831010046 70 0 0.0 0.0 0.00 0.01 0.01 90 1020.6
20260831004543 71 0 0.0 0.0 0.00 0.01 0.01 90 1020.3
20260831003044 71 0 0.0 0.0 0.00 0.01 0.01 89 1020.0
20260831001543 71 0 0.0 0.0 0.00 0.01 0.01 88 1019.9
20260831000045 72 0 0.0 0.0 0.00 0.01 0.01 88 1019.7
20260830234548 72 0 0.0 0.0 0.00 0.01 0.01 87 1019.8
20260830233044 73 0 0.0 0.0 0.00 0.01 0.01 86 1019.8
20260830231558 73 0 0.0 0.0 0.00 0.01 0.01 85 1019.7
20260830230049 74 0 0.0 0.0 0.00 0.01 0.01 84 1019.4
20260830224549 75 0 0.0 0.0 0.00 0.01 0.01 83 1018.9
20260830223043 75 0 0.0 1.0 0.00 0.01 0.01 81 1018.6
20260830221541 75 101 0.0 2.0 0.00 0.01 0.01 80 1018.1
20260830220046 76 0 0.0 4.0 0.00 0.01 0.01 79 1018.0
20260830214543 77 0 0.0 2.0 0.00 0.01 0.01 79 1017.9
20260830213043 77 190 0.0 2.0 0.00 0.01 0.01 80 1018.1
20260830211542 77 119 1.0 4.0 0.00 0.01 0.01 79 1017.8
20260830210042 76 17 1.0 5.0 0.00 0.01 0.01 82 1017.9
20260830204541 76 115 0.0 2.0 0.00 0.01 0.01 83 1018.1
20260830203045 75 0 0.0 2.0 0.00 0.01 0.01 84 1018.7
20260830201543 75 0 0.0 4.0 0.00 0.01 0.01 85 1018.7
20260830200047 75 0 1.0 3.0 0.00 0.01 0.01 85 1018.7
20260830194547 74 73 0.0 4.0 0.00 0.01 0.01 85 1018.9
20260830193047 75 0 0.0 1.0 0.01 0.01 0.01 85 1019.2
20260830191542 74 0 0.0 3.0 0.01 0.01 0.01 84 1019.6
20260830190043 74 0 0.0 3.0 0.01 0.01 0.01 83 1019.7
20260830184546 74 251 0.0 3.0 0.01 0.01 0.01 83 1019.8
20260830183040 75 0 0.0 1.0 0.00 0.00 0.00 83 1020.2
20260830181539 75 0 0.0 1.0 0.00 0.00 0.00 82 1020.7
20260830180054 74 0 0.0 3.0 0.00 0.00 0.00 81 1020.9
20260830174553 74 208 0.0 2.0 0.00 0.00 0.00 81 1021.1
20260830173055 75 246 0.0 3.0 0.00 0.00 0.00 80 1021.3
20260830171542 74 0 0.0 1.0 0.00 0.00 0.00 82 1021.3
20260830170042 74 0 0.0 1.0 0.00 0.00 0.00 82 1021.3
20260830164544 73 0 0.0 2.0 0.00 0.00 0.00 83 1021.7
20260830163041 74 0 0.0 1.0 0.00 0.00 0.00 83 1022.0
20260830161541 73 0 0.0 2.0 0.00 0.00 0.00 83 1022.1
20260830160043 73 329 0.0 1.0 0.00 0.00 0.00 83 1022.1
20260830154539 73 236 0.0 1.0 0.00 0.00 0.00 84 1022.0
20260830153046 73 0 0.0 1.0 0.00 0.00 0.00 85 1022.1
20260830151542 72 0 0.0 0.0 0.00 0.00 0.00 85 1021.9
20260830150041 72 0 0.0 0.0 0.00 0.00 0.00 86 1021.8
20260830144540 72 302 1.0 2.0 0.00 0.00 0.00 85 1021.6
20260830143046 71 0 0.0 0.0 0.00 0.00 0.00 83 1021.0
20260830141551 72 0 0.0 0.0 0.00 0.00 0.00 82 1021.2
20260830140046 71 0 0.0 1.0 0.00 0.00 0.00 82 1021.0
20260830134544 71 146 0.0 2.0 0.00 0.00 0.00 81 1020.8
20260830133059 71 138 0.0 1.0 0.00 0.00 0.00 81 1020.1
20260830131540 70 0 0.0 2.0 0.00 0.00 0.00 81 1019.8
20260830130041 70 150 1.0 3.0 0.00 0.00 0.00 81 1019.8
20260830124550 70 145 1.0 5.0 0.00 0.00 0.00 81 1019.9
20260830123040 69 0 0.0 2.0 0.00 0.00 0.00 83 1019.9
20260830121543 69 0 0.0 2.0 0.00 0.00 0.00 83 1019.9
20260830120045 68 0 0.0 2.0 0.00 0.00 0.00 83 1019.8
20260830114555 68 153 0.0 5.0 0.00 0.00 0.00 84 1019.8
20260830113041 67 0 0.0 1.0 0.00 0.00 0.00 84 1020.0
20260830111538 67 0 0.0 2.0 0.00 0.00 0.00 84 1019.9
20260830110044 67 0 0.0 3.0 0.00 0.00 0.00 84 1019.8
20260830104548 67 0 0.0 5.0 0.00 0.00 0.00 84 1019.9
20260830103040 67 0 0.0 2.0 0.00 0.00 0.00 84 1019.9
20260830101543 67 0 0.0 0.0 0.00 0.00 0.00 84 1020.0
20260830100038 67 0 0.0 2.0 0.00 0.00 0.00 84 1020.0